CW3202 Weather Reports


Display with metric or nautical units.
time (UTC)temp
F
wind
direction
speed
MPH
gust
MPH
rain 1hr
in
rain 24hr
in
rain mn
in
humidity
%
barometer
mb
20260505181504 58 360 2.0 4.0 0.00 0.00 0.00 83 1016.2
20260505181004 58 360 0.0 3.0 0.00 0.00 0.00 82 1016.2
20260505180504 58 360 3.0 3.0 0.00 0.00 0.00 83 1016.2
20260505180004 58 360 3.0 3.0 0.00 0.00 0.00 84 1016.1
20260505175504 57 360 1.0 5.0 0.00 0.00 0.00 85 1016.1
20260505175004 57 360 3.0 5.0 0.00 0.00 0.00 85 1016.1
20260505174504 57 360 4.0 4.0 0.00 0.00 0.00 86 1016.1
20260505173604 57 360 3.0 3.0 0.00 0.00 0.00 86 1016.1
20260505173104 56 360 3.0 3.0 0.00 0.00 0.00 87 1016.1
20260505172604 56 200 2.0 3.0 0.00 0.00 0.00 86 1016.1
20260505172104 56 196 1.0 4.0 0.00 0.00 0.00 87 1016.0
20260505171604 56 194 2.0 4.0 0.00 0.00 0.00 86 1016.0
20260505171104 56 203 0.0 4.0 0.00 0.00 0.00 86 1016.1
20260505170604 56 360 1.0 3.0 0.00 0.00 0.00 87 1016.0
20260505170104 56 208 0.0 2.0 0.00 0.00 0.00 87 1015.8
20260505165404 56 208 1.0 2.0 0.00 0.00 0.00 86 1015.8
20260505164704 56 360 0.0 2.0 0.00 0.00 0.00 87 1015.8
20260505164004 56 360 1.0 3.0 0.00 0.00 0.00 88 1015.8
20260505163504 55 360 2.0 3.0 0.00 0.00 0.00 87 1015.8
20260505163004 55 360 1.0 2.0 0.00 0.00 0.00 87 1015.8
20260505162504 55 360 0.0 3.0 0.00 0.00 0.00 87 1015.7
20260505162004 55 360 1.0 3.0 0.00 0.00 0.00 88 1015.6
20260505161504 55 360 1.0 2.0 0.00 0.00 0.00 88 1015.6
20260505161004 55 360 0.0 2.0 0.00 0.00 0.00 88 1015.6
20260505160504 55 360 0.0 2.0 0.00 0.00 0.00 89 1015.5
20260505152804 54 360 1.0 3.0 0.00 0.00 0.00 91 1015.5
20260505152305 53 360 0.0 3.0 0.00 0.00 0.00 91 1015.5
20260505151804 53 360 3.0 3.0 0.00 0.00 0.00 91 1015.5
20260505150504 53 360 2.0 2.0 0.00 0.00 0.00 91 1015.4
20260505140504 52 167 3.0 3.0 0.00 0.00 0.00 93 1015.0
20260505125004 52 165 0.0 1.0 0.00 0.00 0.00 93 1014.5
20260505124305 52 165 0.0 0.0 0.00 0.00 0.00 93 1014.5
20260505123804 52 166 0.0 0.0 0.00 0.00 0.00 93 1014.4
20260505123104 52 165 0.0 0.0 0.00 0.00 0.00 93 1014.4
20260505122604 52 165 0.0 0.0 0.00 0.00 0.00 93 1014.5
20260505122104 52 165 0.0 0.0 0.00 0.00 0.00 93 1014.5
20260505121604 52 166 0.0 1.0 0.00 0.00 0.00 93 1014.4
20260505121105 52 166 0.0 1.0 0.00 0.00 0.00 93 1014.4
20260505120604 52 166 0.0 2.0 0.00 0.00 0.00 93 1014.4
20260505120104 52 165 0.0 4.0 0.00 0.00 0.00 93 1014.4
20260505115604 52 165 2.0 4.0 0.00 0.00 0.00 93 1014.3
20260505115104 53 169 1.0 1.0 0.00 0.00 0.00 93 1014.3
20260505114404 53 169 0.0 1.0 0.00 0.00 0.00 93 1014.3
20260505113904 53 169 0.0 1.0 0.00 0.00 0.00 93 1014.3
20260505113404 53 169 0.0 1.0 0.00 0.00 0.00 93 1014.3
20260505112704 53 360 0.0 1.0 0.00 0.00 0.00 92 1014.4
20260505112204 53 360 1.0 1.0 0.00 0.00 0.00 92 1014.3
20260505111604 53 169 0.0 0.0 0.00 0.00 0.00 92 1014.4
20260505110504 53 169 0.0 1.0 0.00 0.00 0.00 92 1014.2
20260505102004 53 360 1.0 2.0 0.00 0.00 0.00 92 1013.8
20260505100904 53 360 2.0 3.0 0.00 0.00 0.00 92 1013.8
20260505100404 53 360 0.0 3.0 0.00 0.00 0.00 92 1013.9
20260505095904 53 360 3.0 3.0 0.00 0.00 0.00 92 1013.9
20260505095404 53 360 2.0 3.0 0.00 0.00 0.00 92 1013.9
20260505094904 53 360 3.0 3.0 0.00 0.00 0.00 92 1013.9
20260505094404 53 360 1.0 3.0 0.00 0.00 0.00 92 1013.9
20260505093904 53 360 1.0 2.0 0.00 0.00 0.00 92 1013.8
20260505093404 53 360 2.0 2.0 0.00 0.00 0.00 92 1013.9
20260505092904 53 360 1.0 1.0 0.00 0.00 0.00 92 1013.7
20260505092404 53 360 1.0 1.0 0.00 0.00 0.00 92 1013.8
20260505091904 53 360 0.0 1.0 0.00 0.00 0.00 92 1013.8
20260505091404 53 360 0.0 1.0 0.00 0.00 0.00 92 1013.6
20260505090904 53 360 1.0 1.0 0.00 0.00 0.00 92 1013.7
20260505090204 53 360 1.0 1.0 0.00 0.00 0.00 92 1013.6
20260505085704 53 360 1.0 1.0 0.00 0.00 0.00 92 1013.6
20260505085204 53 360 1.0 1.0 0.00 0.00 0.00 92 1013.6
20260505084704 53 360 0.0 1.0 0.00 0.00 0.00 92 1013.5
20260505084204 53 360 0.0 1.0 0.00 0.00 0.00 92 1013.5
20260505083704 53 360 1.0 2.0 0.00 0.00 0.00 92 1013.5
20260505083204 53 360 1.0 2.0 0.00 0.00 0.00 91 1013.5
20260505082704 53 360 2.0 2.0 0.00 0.00 0.00 92 1013.4
20260505082105 53 360 2.0 2.0 0.00 0.00 0.00 91 1013.4
20260505081505 53 360 0.0 3.0 0.00 0.00 0.00 91 1013.4
20260505081004 53 360 3.0 3.0 0.00 0.00 0.00 91 1013.3
20260505080304 53 132 1.0 2.0 0.00 0.00 0.00 92 1013.4
20260505075804 53 107 0.0 2.0 0.00 0.00 0.00 92 1013.4
20260505075304 53 360 2.0 2.0 0.00 0.00 0.00 92 1013.4
20260505074805 54 360 1.0 3.0 0.00 0.00 0.00 92 1013.5
20260505074304 53 360 2.0 3.0 0.00 0.00 0.00 91 1013.4
20260505073804 53 173 1.0 3.0 0.00 0.00 0.00 92 1013.4
20260505073304 53 360 2.0 3.0 0.00 0.00 0.00 91 1013.4
20260505072604 54 360 1.0 3.0 0.00 0.00 0.00 92 1013.2
20260505072104 54 360 2.0 3.0 0.00 0.00 0.00 92 1013.2
20260505071604 54 360 2.0 3.0 0.00 0.00 0.00 92 1013.2
20260505071104 54 360 0.0 2.0 0.00 0.00 0.00 92 1013.1
20260505070604 54 360 2.0 2.0 0.00 0.00 0.00 92 1013.1
20260505070104 54 360 0.0 3.0 0.00 0.00 0.00 92 1012.9
20260505065604 54 360 2.0 3.0 0.00 0.00 0.00 92 1013.0
20260505065104 54 360 2.0 3.0 0.00 0.00 0.00 92 1013.1
20260505064604 54 360 0.0 3.0 0.00 0.00 0.00 92 1012.9
20260505064104 54 360 2.0 3.0 0.00 0.00 0.00 92 1012.8
20260505063604 54 360 2.0 3.0 0.00 0.00 0.00 92 1012.9
20260505063104 54 360 1.0 4.0 0.00 0.00 0.00 92 1012.9
20260505062604 54 360 3.0 4.0 0.00 0.00 0.00 92 1013.0
20260505062104 54 360 2.0 4.0 0.00 0.00 0.00 92 1013.0
20260505061604 54 360 2.0 4.0 0.00 0.00 0.00 92 1012.9
20260505061104 54 360 3.0 4.0 0.00 0.00 0.00 92 1012.8
20260505060504 54 360 1.0 4.0 0.00 0.00 0.00 92 1012.7
20260505060004 54 360 0.0 4.0 0.00 0.00 0.00 92 1012.6
20260505055504 54 360 2.0 4.0 0.00 0.00 0.00 92 1012.6
20260505055006 54 360 1.0 4.0 0.00 0.00 0.00 92 1012.6
20260505054504 54 360 3.0 3.0 0.00 0.00 0.00 92 1012.6
20260505054004 54 360 1.0 3.0 0.00 0.00 0.00 92 1012.5
20260505053504 54 360 2.0 3.0 0.00 0.00 0.00 92 1012.6
20260505053004 54 360 3.0 3.0 0.00 0.00 0.00 92 1012.6
20260505052504 54 360 2.0 4.0 0.00 0.00 0.00 92 1012.5
20260505052004 54 360 3.0 4.0 0.00 0.00 0.00 92 1012.5
20260505051504 54 360 2.0 3.0 0.00 0.00 0.00 92 1012.5
20260505051005 54 360 3.0 5.0 0.00 0.00 0.00 92 1012.5
20260505050504 54 360 2.0 5.0 0.00 0.00 0.00 92 1012.5
20260505041504 54 360 0.0 2.0 0.00 0.00 0.00 92 1012.1
20260505040804 54 360 0.0 3.0 0.00 0.00 0.00 91 1012.0
20260505040304 54 360 1.0 3.0 0.00 0.00 0.00 91 1011.9
20260505035804 55 360 3.0 3.0 0.00 0.00 0.00 90 1011.9
20260505035304 55 360 2.0 3.0 0.00 0.00 0.00 89 1011.9
20260505034804 55 360 2.0 4.0 0.00 0.00 0.00 89 1011.8
20260505033904 56 360 3.0 4.0 0.00 0.00 0.00 87 1011.7
20260505033204 57 360 2.0 4.0 0.00 0.00 0.00 86 1011.5
20260505032704 57 360 4.0 5.0 0.00 0.00 0.00 86 1011.5
20260505032204 58 360 4.0 5.0 0.00 0.00 0.00 84 1011.5
20260505031704 59 360 2.0 4.0 0.00 0.00 0.00 83 1011.5
20260505031204 60 360 3.0 4.0 0.00 0.00 0.00 82 1011.3
20260505030704 60 360 1.0 4.0 0.00 0.00 0.00 81 1011.2
20260505030204 61 360 2.0 4.0 0.00 0.00 0.00 81 1011.1
20260505025704 61 360 2.0 4.0 0.00 0.00 0.00 80 1011.1
20260505025104 62 360 4.0 6.0 0.00 0.00 0.00 79 1011.0
20260505024604 63 163 5.0 6.0 0.00 0.00 0.00 78 1010.8
20260505024104 64 172 6.0 6.0 0.00 0.00 0.00 77 1010.8
20260505023604 64 168 5.0 5.0 0.00 0.00 0.00 76 1010.8
20260505023104 64 165 2.0 5.0 0.00 0.00 0.00 75 1010.8
20260505022604 65 191 1.0 5.0 0.00 0.00 0.00 76 1010.8
20260505022104 65 193 1.0 5.0 0.00 0.00 0.00 75 1010.8
20260505021604 65 210 3.0 6.0 0.00 0.00 0.00 75 1010.7
20260505021104 65 188 4.0 6.0 0.00 0.00 0.00 76 1010.8
20260505020604 65 206 5.0 6.0 0.00 0.00 0.00 75 1010.7
20260505020104 66 200 2.0 6.0 0.00 0.00 0.00 74 1010.7
20260505015604 66 180 6.0 7.0 0.00 0.00 0.00 74 1010.7
20260505015104 67 144 2.0 7.0 0.00 0.00 0.00 72 1010.6
20260505014604 67 168 4.0 8.0 0.00 0.00 0.00 71 1010.5
20260505013904 68 194 6.0 8.0 0.00 0.00 0.00 70 1010.5
20260505013404 68 193 3.0 9.0 0.00 0.00 0.00 70 1010.4
20260505012804 68 200 9.0 9.0 0.00 0.00 0.00 69 1010.4
20260505012304 69 165 5.0 8.0 0.00 0.00 0.00 69 1010.4
20260505011804 69 198 6.0 7.0 0.00 0.00 0.00 67 1010.4
20260505011304 69 198 5.0 11.0 0.00 0.00 0.00 69 1010.4
20260505010804 69 202 7.0 11.0 0.00 0.00 0.00 71 1010.4
20260505010104 70 210 6.0 8.0 0.00 0.00 0.00 68 1010.5
20260505005604 71 168 6.0 8.0 0.00 0.00 0.00 67 1010.4
20260505005104 71 167 5.0 7.0 0.00 0.00 0.00 65 1010.4
20260505004604 71 159 4.0 7.0 0.00 0.00 0.00 66 1010.4
20260505004004 72 178 4.0 8.0 0.00 0.00 0.00 66 1010.3
20260505003504 72 170 7.0 8.0 0.00 0.00 0.00 64 1010.2
20260505003004 72 201 8.0 8.0 0.00 0.00 0.00 63 1010.2
20260505002504 73 196 5.0 6.0 0.00 0.00 0.00 64 1010.2
20260505002004 73 211 2.0 8.0 0.00 0.00 0.00 63 1010.4
20260505001504 74 174 5.0 8.0 0.00 0.00 0.00 65 1010.3
20260505001004 74 146 3.0 7.0 0.00 0.00 0.00 62 1010.3
20260505000504 74 207 4.0 8.0 0.00 0.00 0.00 63 1010.3
20260504235904 74 196 5.0 8.0 0.00 0.00 0.00 62 1010.1
20260504235404 74 180 6.0 9.0 0.00 0.00 0.00 62 1010.2
20260504234904 74 196 5.0 9.0 0.00 0.00 0.00 62 1010.2
20260504234204 74 196 5.0 7.0 0.00 0.00 0.00 61 1010.1
20260504233504 75 185 7.0 8.0 0.00 0.00 0.00 61 1010.1
20260504233004 75 153 8.0 8.0 0.00 0.00 0.00 54 1010.0
20260504232504 74 168 6.0 9.0 0.00 0.00 0.00 60 1010.1
20260504232004 74 193 6.0 9.0 0.00 0.00 0.00 58 1010.1
20260504231104 74 192 5.0 8.0 0.00 0.00 0.00 57 1010.1
20260504230604 74 222 7.0 8.0 0.00 0.00 0.00 57 1010.0
20260504230104 74 220 8.0 9.0 0.00 0.00 0.00 58 1010.1
20260504225604 74 221 4.0 9.0 0.00 0.00 0.00 58 1010.1
20260504225104 74 209 9.0 9.0 0.00 0.00 0.00 63 1010.2
20260504224504 74 217 7.0 8.0 0.00 0.00 0.00 59 1010.2
20260504223804 74 219 4.0 10.0 0.00 0.00 0.00 65 1010.2
20260504223104 75 200 8.0 10.0 0.00 0.00 0.00 59 1010.2
20260504222604 76 198 8.0 12.0 0.00 0.00 0.00 59 1010.3
20260504222105 76 196 4.0 12.0 0.00 0.00 0.00 60 1010.3
20260504221604 76 161 6.0 9.0 0.00 0.00 0.00 59 1010.4
20260504221104 76 246 3.0 11.0 0.00 0.00 0.00 62 1010.4
20260504220604 76 172 3.0 11.0 0.00 0.00 0.00 62 1010.3
20260504220005 76 221 8.0 8.0 0.00 0.00 0.00 64 1010.4
20260504215504 76 163 8.0 8.0 0.00 0.00 0.00 61 1010.4
20260504215003 76 205 4.0 7.0 0.00 0.00 0.00 62 1010.4
20260504214504 76 179 5.0 7.0 0.00 0.00 0.00 62 1010.4
20260504213904 77 198 6.0 6.0 0.00 0.00 0.00 60 1010.4
20260504213004 77 204 3.0 5.0 0.00 0.00 0.00 60 1010.5
20260504211904 76 142 2.0 6.0 0.00 0.00 0.00 66 1010.5
20260504211404 76 188 6.0 6.0 0.00 0.00 0.00 63 1010.6
20260504210904 76 186 2.0 5.0 0.00 0.00 0.00 63 1010.7
20260504210404 75 175 2.0 5.0 0.00 0.00 0.00 70 1010.7
20260504205805 76 188 1.0 3.0 0.00 0.00 0.00 63 1010.7
20260504205304 75 117 2.0 8.0 0.00 0.00 0.00 66 1010.8
20260504204804 75 157 2.0 8.0 0.00 0.00 0.00 66 1011.0
20260504204104 74 76 4.0 5.0 0.00 0.00 0.00 66 1011.0
20260504203604 74 139 1.0 5.0 0.00 0.00 0.00 69 1011.1
20260504202904 73 200 0.0 3.0 0.00 0.00 0.00 67 1011.1
20260504202404 73 136 2.0 3.0 0.00 0.00 0.00 66 1011.2
20260504201904 73 184 2.0 5.0 0.00 0.00 0.00 65 1011.2
20260504201404 72 152 1.0 5.0 0.00 0.00 0.00 67 1011.3
20260504200904 72 126 2.0 5.0 0.00 0.00 0.00 69 1011.3
20260504200404 71 276 2.0 5.0 0.00 0.00 0.00 66 1011.5
20260504195904 72 191 3.0 3.0 0.00 0.00 0.00 70 1011.5
20260504195404 71 179 1.0 6.0 0.00 0.00 0.00 65 1011.6
20260504194904 70 154 1.0 6.0 0.00 0.00 0.00 71 1011.7
20260504194404 70 237 1.0 4.0 0.00 0.00 0.00 70 1011.8
20260504193904 70 205 3.0 4.0 0.00 0.00 0.00 72 1011.7
20260504193304 69 167 0.0 6.0 0.00 0.00 0.00 74 1011.8
20260504192804 69 182 2.0 6.0 0.00 0.00 0.00 72 1011.8
20260504192105 68 189 2.0 3.0 0.00 0.00 0.00 71 1012.0
20260504191603 68 173 3.0 5.0 0.00 0.00 0.00 72 1012.0
20260504191004 67 214 2.0 9.0 0.00 0.00 0.00 75 1012.0
20260504190504 67 217 7.0 9.0 0.00 0.00 0.00 75 1011.9
20260504190004 67 202 5.0 6.0 0.00 0.00 0.00 75 1011.9
20260504185504 66 165 5.0 5.0 0.00 0.00 0.00 76 1011.9
20260504185005 66 213 5.0 5.0 0.00 0.00 0.00 76 1012.0
20260504184504 65 219 4.0 5.0 0.00 0.00 0.00 79 1012.2
20260504184004 65 209 2.0 6.0 0.00 0.00 0.00 77 1012.2
20260504183504 65 197 2.0 6.0 0.00 0.00 0.00 78 1012.3
20260504183004 65 203 6.0 6.0 0.00 0.00 0.00 79 1012.2
20260504182504 64 233 5.0 5.0 0.00 0.00 0.00 80 1012.2
20260504182004 64 217 4.0 4.0 0.00 0.00 0.00 77 1012.3